RH
49 66 56 31 38 47 46 47 33 34 39 36 34 34 33 32 31 31 34 33 32 33 32 32 32 32 34 30 30 31 34 36 45 49 51 49 39 30 28 30 31 29 31 33
88 94 64 49 47 65 48 43 43 35 37 36 34 38 33 31 31 30 29 30 30 32 34 36 34 34 33 31 32 33 33 38 52 52 50 50 47 36 30 32 31 30 30 32
80 72 78 66 70 83 51 42 40 44 38 49 56 45 46 38 33 33 29 29 32 33 35 37 37 38 36 34 37 37 35 41 46 50 51 42 41 35 30 29 30 32 31 31
61 56 91 77 71 78 47 33 34 34 36 55 65 54 46 44 41 36 34 33 32 33 33 36 38 38 38 38 38 39 39 39 42 44 45 40 37 34 34 34 33 34 32 32
38 79 98 98 63 67 43 27 29 27 32 62 83 83 49 48 44 36 34 33 32 33 36 38 38 37 42 42 41 41 40 40 41 41 42 41 38 33 32 30 31 33 34 32
42 43 82 83 69 52 44 34 32 36 59 96 62 64 49 41 42 36 34 34 31 29 34 42 45 38 43 48 46 41 39 38 37 33 33 27 24 23 20 19 20 22 29 33
48 50 57 64 64 52 39 31 62 88 92 79 47 53 43 33 30 32 29 30 33 35 41 43 46 52 65 70 71 54 57 36 27 21 18 23 21 22 20 18 20 19 23 31
74 86 96 55 74 42 31 38 70 91 78 58 44 52 36 26 28 30 33 36 36 35 41 48 56 62 66 67 72 78 68 44 30 25 20 19 20 19 16 19 22 23 23 30
97 81 61 73 85 59 46 47 45 52 58 63 40 38 35 35 36 40 42 47 46 58 62 61 59 57 67 67 68 63 64 45 21 16 15 16 15 15 14 16 20 26 23 30
96 89 53 64 56 45 30 40 50 68 88 86 79 43 36 49 52 65 58 60 75 72 64 62 67 69 66 49 46 51 30 23 21 20 16 14 14 11 12 16 19 30 24 29
96 90 63 76 80 53 46 45 54 87 59 66 95 83 77 58 50 77 69 77 98 83 67 71 72 65 61 59 34 26 31 30 25 24 22 20 18 14 18 19 20 31 30 29
93 96 87 70 61 59 57 52 53 59 60 42 48 94 97 74 85 60 59 71 97 90 75 72 73 67 60 43 37 35 41 35 29 29 26 24 24 23 24 26 23 35 44 34
92 93 85 59 42 54 70 49 46 44 49 39 58 81 79 93 93 100 83 87 94 72 73 64 52 63 62 39 31 26 35 31 27 28 34 32 30 32 49 56 33 39 72 42
78 88 97 95 91 97 85 57 28 35 44 39 51 81 90 85 98 98 100 90 73 69 71 67 60 48 38 34 20 18 33 29 23 25 38 49 44 60 94 95 45 56 69 67
77 80 84 74 90 95 100 69 69 39 38 39 55 74 97 97 99 98 95 86 78 69 64 51 41 34 25 20 31 32 29 26 37 40 43 58 54 98 92 76 64 84 98 100
74 81 76 57 82 72 85 68 61 59 53 64 73 95 99 98 94 98 83 62 59 49 38 41 45 36 35 33 36 36 42 52 46 53 58 61 82 99 100 82 80 98 99 100
89 82 90 81 56 74 93 89 59 95 90 82 80 95 100 99 90 82 77 55 42 46 60 53 46 37 30 32 47 56 49 48 53 57 53 68 99 99 100 100 89 98 98 98
78 77 86 81 68 78 98 96 99 98 98 98 99 99 98 97 79 84 96 90 69 44 35 37 46 51 53 57 64 64 58 50 50 53 62 82 100 100 100 92 91 100 99 100
85 87 87 85 76 78 78 68 79 99 99 98 98 98 99 98 98 87 58 48 42 40 54 66 66 65 66 68 73 73 66 56 57 57 78 100 100 99 100 100 99 98 98 94
77 78 87 80 76 96 93 63 73 99 94 95 97 98 98 100 84 58 66 62 50 62 78 78 76 76 82 84 87 94 86 90 90 85 97 100 100 100 100 100 100 100 98 98
67 80 79 76 81 98 90 56 86 88 100 96 94 95 96 73 68 70 72 67 58 43 56 75 90 88 90 93 98 98 97 93 96 98 95 99 100 100 100 100 100 100 100 99
96 83 85 83 82 94 75 68 74 100 100 99 85 96 92 77 73 71 68 65 56 44 73 87 93 95 98 99 98 98 98 91 98 98 96 98 99 99 100 100 100 100 100 100
96 86 94 84 97 96 87 94 96 99 100 98 94 90 84 76 65 62 61 56 53 48 66 100 93 99 93 96 93 93 99 97 89 96 97 97 98 99 99 100 100 100 100 99
94 82 77 96 82 80 86 91 97 98 98 97 98 96 90 81 66 64 63 61 59 57 58 81 95 90 93 87 91 72 91 96 94 88 94 98 98 99 99 99 99 99 100 96
96 89 74 94 91 87 92 96 97 99 98 96 96 97 95 94 80 70 65 61 61 61 63 71 73 83 87 92 72 68 84 91 97 96 95 95 98 98 98 98 98 99 99 99
86 83 78 95 98 95 96 95 96 96 98 96 94 94 95 95 90 83 69 65 64 60 57 56 58 62 63 68 66 64 85 84 79 84 96 96 96 98 97 98 99 98 98 98
Wind_Speed
34 32 40 44 53 46 41 32 40 41 36 31 41 53 47 34 34 33 41 38 37 31 30 25 23 33 33 31 31 38 39 35 34 35 39 41 33 33 36 33 28 27 25 26
31 45 45 45 48 46 44 43 37 36 31 38 44 30 47 44 39 42 34 33 37 30 25 25 26 28 29 36 37 37 39 39 37 39 42 45 40 31 35 34 34 30 27 27
30 45 34 38 45 45 48 43 36 33 30 17 21 29 32 30 38 34 40 34 28 30 30 21 25 28 35 41 38 36 40 40 40 41 42 46 44 37 34 34 32 31 30 28
19 29 36 42 48 40 41 45 36 39 36 14 15 6 23 41 33 22 25 28 32 30 31 30 26 27 31 35 37 41 44 45 42 43 44 47 45 41 36 34 33 34 32 31
33 39 40 32 37 31 41 40 34 38 35 15 7 6 26 24 39 36 29 32 29 21 31 34 30 27 26 37 42 44 46 47 48 48 49 51 49 42 37 36 34 34 35 32
31 32 31 21 25 29 37 41 30 22 15 3 17 18 18 24 42 36 31 36 30 22 18 25 24 22 33 32 36 44 47 47 47 50 45 42 40 40 39 38 36 35 37 36
32 40 30 15 15 25 36 31 9 2 2 4 14 16 30 11 30 32 34 29 26 28 34 24 32 36 29 27 26 32 35 34 34 33 36 40 42 40 40 39 36 36 38 38
18 33 29 9 4 17 31 27 9 2 5 4 9 11 20 17 22 14 21 28 28 30 35 36 37 33 28 27 24 20 25 25 26 29 32 35 38 41 42 39 36 36 38 37
16 18 16 17 9 7 24 23 18 1 3 3 11 13 8 14 13 14 22 32 27 29 29 27 31 35 29 29 23 27 29 30 31 34 34 37 41 42 41 40 39 37 36 37
15 17 25 11 4 13 21 26 13 4 1 4 5 9 10 7 21 29 35 33 25 27 31 31 28 26 26 30 30 32 31 30 31 35 37 38 41 45 40 37 40 39 35 37
18 10 18 16 3 6 13 19 7 5 7 1 2 4 10 9 28 23 29 29 24 22 21 20 24 28 26 27 28 28 27 28 30 34 36 37 37 42 37 38 38 39 35 39
24 7 20 16 12 5 7 20 17 8 5 4 9 3 9 9 25 26 32 22 16 19 18 18 18 19 21 26 30 29 28 29 29 31 33 36 36 37 36 38 39 36 37 38
29 12 12 17 11 8 14 10 20 18 12 5 3 6 5 13 18 17 20 23 23 21 17 14 22 25 27 30 29 29 30 31 31 31 34 34 33 33 31 32 36 36 37 36
21 12 9 6 14 21 20 9 15 16 11 6 2 6 9 13 15 5 21 19 13 12 13 17 20 27 33 33 31 30 30 33 33 33 33 33 31 30 35 35 37 33 38 38
16 17 17 16 17 18 4 8 4 10 5 9 4 5 3 7 8 14 11 2 8 11 17 23 25 27 29 30 29 30 31 32 32 32 31 29 29 25 32 37 35 34 33 45
13 15 20 14 13 4 11 0 8 5 5 6 3 10 10 10 7 4 5 11 15 20 21 23 23 25 27 28 28 28 26 26 30 31 27 28 22 24 26 30 33 35 42 45
9 14 18 7 14 9 12 11 7 18 10 1 4 6 5 10 7 7 3 10 13 12 12 16 18 21 25 27 26 24 24 27 29 29 27 23 23 23 25 27 33 40 41 43
8 10 9 10 19 3 11 20 20 21 24 23 13 9 5 11 9 8 5 8 10 12 13 15 16 18 21 22 21 22 24 27 28 28 24 19 27 23 24 24 31 38 39 36
7 6 6 6 14 3 22 16 14 16 18 15 13 8 6 7 7 4 7 8 10 11 13 14 15 18 20 22 23 26 27 28 28 26 20 24 28 26 25 26 37 37 36 40
6 4 4 9 4 4 17 10 4 6 15 13 6 5 5 5 6 6 8 10 12 11 12 14 15 18 21 24 25 26 29 26 27 24 18 27 27 29 29 33 27 35 41 40
15 8 11 9 2 3 19 15 4 5 7 15 15 9 4 2 4 6 9 10 11 12 12 15 15 16 18 20 24 25 26 26 20 19 15 24 28 29 34 31 33 33 34 33
10 6 8 8 7 4 19 13 11 6 5 10 15 10 7 6 6 7 9 10 10 10 10 12 13 14 16 18 19 21 25 26 29 16 13 12 25 30 34 39 34 36 32 36
7 12 5 7 3 11 14 7 2 5 9 10 10 10 7 8 7 7 8 9 9 10 7 8 10 11 15 16 19 20 19 21 26 27 22 13 6 27 38 41 40 37 36 33
9 11 11 4 8 11 10 7 6 9 11 11 9 8 9 8 8 8 8 9 9 9 9 8 10 11 13 15 17 20 18 18 17 21 24 23 16 1 26 38 39 38 36 35
10 8 9 5 9 13 10 10 8 6 8 9 7 9 10 11 10 8 8 8 9 9 9 10 10 12 13 15 15 15 14 16 16 15 17 17 20 21 10 13 23 33 37 31
6 9 10 6 9 9 9 8 7 6 7 9 11 10 10 9 8 6 8 8 9 10 10 10 11 12 12 13 13 13 13 14 10 14 15 14 14 13 16 12 16 10 13 14
Wind_Direction
285 258 254 251 233 247 259 267 248 247 240 243 234 234 239 240 240 241 235 238 241 246 243 241 235 211 222 220 226 231 237 245 247 250 255 261 262 252 260 266 265 263 260 260
281 249 252 253 254 253 253 258 265 246 244 241 241 240 241 235 237 244 235 231 236 235 237 231 219 214 219 225 226 228 232 237 235 240 248 258 266 261 254 258 264 263 258 261
278 271 273 259 261 253 246 248 257 247 252 244 231 239 234 218 225 238 238 234 231 229 218 209 212 206 215 221 223 221 230 236 236 241 247 256 265 263 258 262 267 266 265 265
300 302 281 262 254 234 239 235 247 251 251 232 223 275 248 228 228 215 205 226 227 230 228 213 208 216 220 228 230 228 229 238 245 252 257 261 266 264 265 265 263 263 259 259
319 309 306 272 240 225 234 217 233 248 246 225 181 207 255 219 222 213 208 209 213 208 225 218 216 225 231 222 221 223 229 231 238 245 254 262 264 264 265 265 262 261 262 256
316 319 322 309 241 227 231 228 249 246 191 169 209 207 257 237 218 215 221 214 219 226 227 218 207 226 217 216 218 220 228 231 240 250 244 249 258 263 263 262 260 256 256 256
299 299 288 271 239 242 228 221 197 95 117 220 207 199 240 240 234 233 237 228 229 235 217 202 212 210 206 208 216 230 236 245 246 246 249 253 255 256 260 259 260 254 250 251
327 319 333 192 227 246 222 201 156 168 169 167 156 221 248 277 205 240 244 230 204 188 193 197 199 203 208 218 221 231 251 253 251 248 251 254 257 260 259 258 259 254 247 247
317 326 1 338 313 210 162 188 204 68 134 122 205 226 256 280 245 220 187 178 176 172 176 186 199 210 217 226 235 246 253 260 263 261 254 254 257 257 258 261 258 258 245 243
316 307 321 289 312 152 197 179 193 70 327 221 335 200 219 59 158 150 155 163 168 172 179 194 209 221 233 252 253 262 268 266 265 265 265 257 255 259 256 257 256 254 247 241
339 331 317 329 55 135 165 192 185 207 269 282 1 334 1 153 178 176 155 162 154 188 196 201 221 232 244 264 271 278 285 276 270 270 268 263 258 255 261 257 250 248 248 240
352 332 329 308 312 265 210 224 204 221 292 283 151 233 87 154 141 184 201 181 180 188 203 229 246 266 275 282 287 291 288 288 278 275 271 263 259 255 254 251 246 243 243 238
357 342 345 357 1 27 218 253 209 230 227 327 346 95 135 158 153 132 156 176 204 205 210 248 274 271 271 280 287 288 287 285 281 282 278 269 263 258 253 248 239 236 236 235
349 350 355 324 301 311 307 299 251 220 222 242 294 125 150 176 208 140 156 189 213 229 245 259 272 280 282 286 289 289 289 291 285 287 284 280 274 247 243 244 238 230 235 224
356 341 340 319 299 283 301 292 298 225 217 244 199 86 150 188 151 192 185 207 286 280 285 286 282 285 290 291 294 291 290 288 290 293 284 279 280 249 249 241 226 219 220 230
359 324 341 339 354 332 8 71 15 33 55 107 83 115 122 108 73 115 105 281 287 286 287 286 287 294 297 299 298 292 290 293 301 291 290 276 261 256 256 233 224 207 223 227
324 330 341 304 345 298 24 5 266 42 26 108 92 192 170 107 54 9 309 273 281 303 312 308 303 299 301 299 298 290 290 304 303 292 287 261 241 251 250 237 223 206 226 225
295 327 324 303 348 39 53 52 57 64 75 72 107 113 26 59 36 26 17 345 348 339 328 318 318 318 317 320 315 307 303 311 309 304 281 251 234 241 234 241 207 215 225 220
239 301 332 343 322 271 35 27 19 18 54 66 77 48 33 14 27 8 358 4 351 340 344 353 360 356 352 346 336 329 325 318 320 313 276 231 221 231 218 220 212 214 224 213
358 4 307 327 319 42 5 18 22 130 44 12 4 35 156 19 350 8 8 356 355 351 352 353 357 1 3 2 356 349 345 340 337 322 267 227 221 212 214 213 218 213 221 220
28 45 37 13 324 99 12 360 58 79 356 358 356 351 56 34 9 354 341 337 340 343 342 347 342 345 354 360 4 1 357 3 340 339 292 232 222 221 210 213 214 224 224 211
40 18 17 23 31 354 355 3 65 61 341 351 348 11 18 4 345 328 322 321 325 336 341 357 352 342 351 354 351 352 3 8 11 1 355 266 234 221 209 209 216 218 202 199
53 25 27 23 30 343 346 4 358 290 310 320 336 339 347 340 336 341 334 331 334 334 332 342 359 5 359 357 360 357 354 4 14 12 21 9 277 220 203 208 211 194 200 198
7 30 21 33 353 341 332 339 279 271 284 299 309 311 313 318 322 335 339 337 339 340 341 334 327 338 345 343 343 348 348 359 7 15 20 24 29 108 208 197 196 199 202 209
318 15 357 324 349 335 342 312 295 290 289 293 293 300 302 304 294 314 331 336 332 330 335 332 322 318 316 324 339 343 351 0 3 3 28 26 40 40 74 190 192 183 187 205
16 356 8 344 344 340 352 337 323 304 296 293 297 293 287 291 290 292 311 324 331 331 329 329 322 319 322 327 340 349 355 6 7 3 8 31 47 48 46 64 100 128 174 188